owner,sensor,date,latitude,longitude,vertical_datum,mass_concentration_of_oxygen_in_sea_water,qcFlag 
SCCF RECON,ioos:station:SCCF:13:1,2013-08-01T00:00:00Z,26.5255,-82.0032,2.21,4.64,1111122 
SCCF RECON,ioos:station:SCCF:13:1,2013-08-01T01:00:00Z,26.5255,-82.0032,2.27,4.79,1111122 
SCCF RECON,ioos:station:SCCF:13:1,2013-08-01T02:00:00Z,26.5255,-82.0032,2.32,3.47,1111122 
SCCF RECON,ioos:station:SCCF:13:1,2013-08-01T03:00:00Z,26.5255,-82.0032,2.35,3.47,1111122 
SCCF RECON,ioos:station:SCCF:13:1,2013-08-01T04:00:00Z,26.5255,-82.0032,2.37,3.72,1111122 
SCCF RECON,ioos:station:SCCF:13:1,2013-08-01T05:00:00Z,26.5255,-82.0032,2.37,4.02,1111122 
SCCF RECON,ioos:station:SCCF:13:1,2013-08-01T06:00:00Z,26.5255,-82.0032,2.32,3.77,1111122 
SCCF RECON,ioos:station:SCCF:13:1,2013-08-01T07:00:00Z,26.5255,-82.0032,2.25,3.68,1111122 
SCCF RECON,ioos:station:SCCF:13:1,2013-08-01T08:00:00Z,26.5255,-82.0032,2.21,4.2,1111122 
SCCF RECON,ioos:station:SCCF:13:1,2013-08-01T09:00:00Z,26.5255,-82.0032,2.23,4.42,1111122 
SCCF RECON,ioos:station:SCCF:13:1,2013-08-01T10:00:00Z,26.5255,-82.0032,2.33,2.95,1111122 
SCCF RECON,ioos:station:SCCF:13:1,2013-08-01T11:00:00Z,26.5255,-82.0032,2.429,3.68,1111122 
SCCF RECON,ioos:station:SCCF:13:1,2013-08-01T12:00:00Z,26.5255,-82.0032,2.49,3.85,1111122 
SCCF RECON,ioos:station:SCCF:13:1,2013-08-01T13:00:00Z,26.5255,-82.0032,2.55,4.18,1111122 
SCCF RECON,ioos:station:SCCF:13:1,2013-08-01T14:00:00Z,26.5255,-82.0032,2.566,4.28,1111122 
SCCF RECON,ioos:station:SCCF:13:1,2013-08-01T15:00:00Z,26.5255,-82.0032,2.55,4.15,1111122 
SCCF RECON,ioos:station:SCCF:13:1,2013-08-01T16:00:00Z,26.5255,-82.0032,2.484,4.24,1111122 
SCCF RECON,ioos:station:SCCF:13:1,2013-08-01T17:00:00Z,26.5255,-82.0032,2.36,4.05,1111122 
SCCF RECON,ioos:station:SCCF:13:1,2013-08-01T18:00:00Z,26.5255,-82.0032,2.253,4.47,1111122 
SCCF RECON,ioos:station:SCCF:13:1,2013-08-01T19:00:00Z,26.5255,-82.0032,2.18,4.63,1111122 
SCCF RECON,ioos:station:SCCF:13:1,2013-08-01T20:00:00Z,26.5255,-82.0032,2.1,4.49,1111122 
SCCF RECON,ioos:station:SCCF:13:1,2013-08-01T21:00:00Z,26.5255,-82.0032,2.035,4.68,1111122 
SCCF RECON,ioos:station:SCCF:13:1,2013-08-01T22:00:00Z,26.5255,-82.0032,2.0,4.56,1111122 
SCCF RECON,ioos:station:SCCF:13:1,2013-08-01T23:00:00Z,26.5255,-82.0032,2.06,4.75,1111122 
SCCF RECON,ioos:station:SCCF:13:1,2013-08-02T00:00:00Z,26.5255,-82.0032,2.15,4.86,1111122 
SCCF RECON,ioos:station:SCCF:13:1,2013-08-02T01:00:00Z,26.5255,-82.0032,2.22,4.92,1111122 
SCCF RECON,ioos:station:SCCF:13:1,2013-08-02T02:00:00Z,26.5255,-82.0032,2.3,4.81,1111122 
SCCF RECON,ioos:station:SCCF:13:1,2013-08-02T03:00:00Z,26.5255,-82.0032,2.35,3.68,1111122 
SCCF RECON,ioos:station:SCCF:13:1,2013-08-02T04:00:00Z,26.5255,-82.0032,2.355,3.85,1111122 
SCCF RECON,ioos:station:SCCF:13:1,2013-08-02T05:00:00Z,26.5255,-82.0032,2.34,4.03,1111122 
SCCF RECON,ioos:station:SCCF:13:1,2013-08-02T06:00:00Z,26.5255,-82.0032,2.347,4.15,1111122 
SCCF RECON,ioos:station:SCCF:13:1,2013-08-02T07:00:00Z,26.5255,-82.0032,2.29,4.24,1111122 
SCCF RECON,ioos:station:SCCF:13:1,2013-08-02T08:00:00Z,26.5255,-82.0032,2.27,3.9,1111122 
SCCF RECON,ioos:station:SCCF:13:1,2013-08-02T09:00:00Z,26.5255,-82.0032,2.28,3.66,1111122 
SCCF RECON,ioos:station:SCCF:13:1,2013-08-02T10:00:00Z,26.5255,-82.0032,2.29,3.61,1111122 
SCCF RECON,ioos:station:SCCF:13:1,2013-08-02T11:00:00Z,26.5255,-82.0032,2.36,3.73,1111122 
SCCF RECON,ioos:station:SCCF:13:1,2013-08-02T12:00:00Z,26.5255,-82.0032,2.43,4.03,1111122 
SCCF RECON,ioos:station:SCCF:13:1,2013-08-02T13:00:00Z,26.5255,-82.0032,2.489,4.19,1111122 
SCCF RECON,ioos:station:SCCF:13:1,2013-08-02T14:00:00Z,26.5255,-82.0032,2.54,4.11,1111122 
SCCF RECON,ioos:station:SCCF:13:1,2013-08-02T15:00:00Z,26.5255,-82.0032,2.573,4.24,1111122 
SCCF RECON,ioos:station:SCCF:13:1,2013-08-02T16:00:00Z,26.5255,-82.0032,2.57,4.11,1111122 
SCCF RECON,ioos:station:SCCF:13:1,2013-08-02T17:00:00Z,26.5255,-82.0032,2.51,4.27,1111122 
SCCF RECON,ioos:station:SCCF:13:1,2013-08-02T18:00:00Z,26.5255,-82.0032,2.4,4.36,1111122 
SCCF RECON,ioos:station:SCCF:13:1,2013-08-02T19:00:00Z,26.5255,-82.0032,2.267,4.57,1111122 
SCCF RECON,ioos:station:SCCF:13:1,2013-08-02T20:00:00Z,26.5255,-82.0032,2.164,4.73,1111122 
SCCF RECON,ioos:station:SCCF:13:1,2013-08-02T21:00:00Z,26.5255,-82.0032,2.079,4.58,1111122 
SCCF RECON,ioos:station:SCCF:13:1,2013-08-02T22:00:00Z,26.5255,-82.0032,2.018,4.84,1111122 
SCCF RECON,ioos:station:SCCF:13:1,2013-08-02T23:00:00Z,26.5255,-82.0032,2.008,4.85,1111122 
SCCF RECON,ioos:station:SCCF:13:1,2013-08-03T00:00:00Z,26.5255,-82.0032,2.093,4.84,1111122 
SCCF RECON,ioos:station:SCCF:13:1,2013-08-03T01:00:00Z,26.5255,-82.0032,2.22,4.81,1111122 
SCCF RECON,ioos:station:SCCF:13:1,2013-08-03T02:00:00Z,26.5255,-82.0032,2.29,4.78,1111122 
SCCF RECON,ioos:station:SCCF:13:1,2013-08-03T03:00:00Z,26.5255,-82.0032,2.336,4.76,1111122 
SCCF RECON,ioos:station:SCCF:13:1,2013-08-03T04:00:00Z,26.5255,-82.0032,2.39,4.03,1111122 
SCCF RECON,ioos:station:SCCF:13:1,2013-08-03T05:00:00Z,26.5255,-82.0032,2.41,3.97,1111122 
SCCF RECON,ioos:station:SCCF:13:1,2013-08-03T06:00:00Z,26.5255,-82.0032,2.42,4.06,1111122 
SCCF RECON,ioos:station:SCCF:13:1,2013-08-03T07:00:00Z,26.5255,-82.0032,2.4,4.0,1111122 
SCCF RECON,ioos:station:SCCF:13:1,2013-08-03T08:00:00Z,26.5255,-82.0032,2.36,3.95,1111122 
SCCF RECON,ioos:station:SCCF:13:1,2013-08-03T09:00:00Z,26.5255,-82.0032,2.32,4.18,1111122 
SCCF RECON,ioos:station:SCCF:13:1,2013-08-03T10:00:00Z,26.5255,-82.0032,2.29,4.34,1111122 
SCCF RECON,ioos:station:SCCF:13:1,2013-08-03T11:00:00Z,26.5255,-82.0032,2.32,4.57,1111122 
SCCF RECON,ioos:station:SCCF:13:1,2013-08-03T12:00:00Z,26.5255,-82.0032,2.4,3.0,1111122 
SCCF RECON,ioos:station:SCCF:13:1,2013-08-03T13:00:00Z,26.5255,-82.0032,2.48,3.76,1111122 
SCCF RECON,ioos:station:SCCF:13:1,2013-08-03T14:00:00Z,26.5255,-82.0032,2.56,3.92,1111122 
SCCF RECON,ioos:station:SCCF:13:1,2013-08-03T15:00:00Z,26.5255,-82.0032,2.597,4.25,1111122 
SCCF RECON,ioos:station:SCCF:13:1,2013-08-03T16:00:00Z,26.5255,-82.0032,2.605,4.66,1111122 
SCCF RECON,ioos:station:SCCF:13:1,2013-08-03T17:00:00Z,26.5255,-82.0032,2.567,4.13,1111122 
SCCF RECON,ioos:station:SCCF:13:1,2013-08-03T18:00:00Z,26.5255,-82.0032,2.469,4.35,1111122 
SCCF RECON,ioos:station:SCCF:13:1,2013-08-03T19:00:00Z,26.5255,-82.0032,2.349,4.03,1111122 
SCCF RECON,ioos:station:SCCF:13:1,2013-08-03T20:00:00Z,26.5255,-82.0032,2.243,4.5,1111122 
SCCF RECON,ioos:station:SCCF:13:1,2013-08-03T21:00:00Z,26.5255,-82.0032,2.161,4.52,1111122 
SCCF RECON,ioos:station:SCCF:13:1,2013-08-03T22:00:00Z,26.5255,-82.0032,2.071,4.76,1111122 
SCCF RECON,ioos:station:SCCF:13:1,2013-08-03T23:00:00Z,26.5255,-82.0032,2.015,4.98,1111122 
SCCF RECON,ioos:station:SCCF:13:1,2013-08-04T00:00:00Z,26.5255,-82.0032,2.02,5.09,1111122 
SCCF RECON,ioos:station:SCCF:13:1,2013-08-04T01:00:00Z,26.5255,-82.0032,2.121,5.09,1111122 
SCCF RECON,ioos:station:SCCF:13:1,2013-08-04T02:00:00Z,26.5255,-82.0032,2.24,5.07,1111122 
SCCF RECON,ioos:station:SCCF:13:1,2013-08-04T03:00:00Z,26.5255,-82.0032,2.3,5.04,1111122 
SCCF RECON,ioos:station:SCCF:13:1,2013-08-04T04:00:00Z,26.5255,-82.0032,2.35,4.81,1111122 
SCCF RECON,ioos:station:SCCF:13:1,2013-08-04T05:00:00Z,26.5255,-82.0032,2.41,4.54,1111122 
SCCF RECON,ioos:station:SCCF:13:1,2013-08-04T06:00:00Z,26.5255,-82.0032,2.41,4.2,1111122 
SCCF RECON,ioos:station:SCCF:13:1,2013-08-04T07:00:00Z,26.5255,-82.0032,2.38,3.97,1111122 
SCCF RECON,ioos:station:SCCF:13:1,2013-08-04T08:00:00Z,26.5255,-82.0032,2.34,4.2,1111122 
SCCF RECON,ioos:station:SCCF:13:1,2013-08-04T09:00:00Z,26.5255,-82.0032,2.26,4.03,1111122 
SCCF RECON,ioos:station:SCCF:13:1,2013-08-04T10:00:00Z,26.5255,-82.0032,2.19,4.53,1111122 
SCCF RECON,ioos:station:SCCF:13:1,2013-08-04T11:00:00Z,26.5255,-82.0032,2.22,4.8,1111122 
SCCF RECON,ioos:station:SCCF:13:1,2013-08-04T12:00:00Z,26.5255,-82.0032,2.318,4.8,1111122 
SCCF RECON,ioos:station:SCCF:13:1,2013-08-04T13:00:00Z,26.5255,-82.0032,2.4,3.92,1111122 
SCCF RECON,ioos:station:SCCF:13:1,2013-08-04T14:00:00Z,26.5255,-82.0032,2.48,3.73,1111122 
SCCF RECON,ioos:station:SCCF:13:1,2013-08-04T15:00:00Z,26.5255,-82.0032,2.55,3.9,1111122 
SCCF RECON,ioos:station:SCCF:13:1,2013-08-04T16:00:00Z,26.5255,-82.0032,2.588,4.29,1111122 
SCCF RECON,ioos:station:SCCF:13:1,2013-08-04T17:00:00Z,26.5255,-82.0032,2.556,4.95,1111122 
SCCF RECON,ioos:station:SCCF:13:1,2013-08-04T18:00:00Z,26.5255,-82.0032,2.51,4.12,1111122 
SCCF RECON,ioos:station:SCCF:13:1,2013-08-04T19:00:00Z,26.5255,-82.0032,2.417,4.7,1111122 
SCCF RECON,ioos:station:SCCF:13:1,2013-08-04T20:00:00Z,26.5255,-82.0032,2.283,4.45,1111122 
SCCF RECON,ioos:station:SCCF:13:1,2013-08-04T21:00:00Z,26.5255,-82.0032,2.173,4.64,1111122 
SCCF RECON,ioos:station:SCCF:13:1,2013-08-04T22:00:00Z,26.5255,-82.0032,2.09,4.61,1111122 
SCCF RECON,ioos:station:SCCF:13:1,2013-08-04T23:00:00Z,26.5255,-82.0032,2.018,5.09,1111122 
SCCF RECON,ioos:station:SCCF:13:1,2013-08-05T00:00:00Z,26.5255,-82.0032,1.981,4.94,1111122 
SCCF RECON,ioos:station:SCCF:13:1,2013-08-05T01:00:00Z,26.5255,-82.0032,2.05,5.11,1111122 
SCCF RECON,ioos:station:SCCF:13:1,2013-08-05T02:00:00Z,26.5255,-82.0032,2.17,5.13,1111122 
SCCF RECON,ioos:station:SCCF:13:1,2013-08-05T03:00:00Z,26.5255,-82.0032,2.27,5.09,1111122 
SCCF RECON,ioos:station:SCCF:13:1,2013-08-05T04:00:00Z,26.5255,-82.0032,2.35,4.9,1111122 
SCCF RECON,ioos:station:SCCF:13:1,2013-08-05T05:00:00Z,26.5255,-82.0032,2.41,4.79,1111122 
SCCF RECON,ioos:station:SCCF:13:1,2013-08-05T06:00:00Z,26.5255,-82.0032,2.433,4.67,1111122 
SCCF RECON,ioos:station:SCCF:13:1,2013-08-05T07:00:00Z,26.5255,-82.0032,2.41,4.92,1111122 
SCCF RECON,ioos:station:SCCF:13:1,2013-08-05T08:00:00Z,26.5255,-82.0032,2.36,4.62,1111122 
SCCF RECON,ioos:station:SCCF:13:1,2013-08-05T09:00:00Z,26.5255,-82.0032,2.29,4.84,1111122 
SCCF RECON,ioos:station:SCCF:13:1,2013-08-05T10:00:00Z,26.5255,-82.0032,2.25,4.66,1111122 
SCCF RECON,ioos:station:SCCF:13:1,2013-08-05T11:00:00Z,26.5255,-82.0032,2.21,4.7,1111122 
SCCF RECON,ioos:station:SCCF:13:1,2013-08-05T12:00:00Z,26.5255,-82.0032,2.22,4.84,1111122 
SCCF RECON,ioos:station:SCCF:13:1,2013-08-05T13:00:00Z,26.5255,-82.0032,2.32,4.97,1111122 
SCCF RECON,ioos:station:SCCF:13:1,2013-08-05T14:00:00Z,26.5255,-82.0032,2.419,4.13,1111122 
SCCF RECON,ioos:station:SCCF:13:1,2013-08-05T15:00:00Z,26.5255,-82.0032,2.49,3.74,1111122 
SCCF RECON,ioos:station:SCCF:13:1,2013-08-05T16:00:00Z,26.5255,-82.0032,2.56,4.54,1111122 
SCCF RECON,ioos:station:SCCF:13:1,2013-08-05T17:00:00Z,26.5255,-82.0032,2.594,4.67,1111122 
SCCF RECON,ioos:station:SCCF:13:1,2013-08-05T18:00:00Z,26.5255,-82.0032,2.551,4.42,1111122 
SCCF RECON,ioos:station:SCCF:13:1,2013-08-05T19:00:00Z,26.5255,-82.0032,2.45,3.93,1111122 
SCCF RECON,ioos:station:SCCF:13:1,2013-08-05T20:00:00Z,26.5255,-82.0032,2.31,4.26,1111122 
SCCF RECON,ioos:station:SCCF:13:1,2013-08-05T21:00:00Z,26.5255,-82.0032,2.21,4.93,1111122 
SCCF RECON,ioos:station:SCCF:13:1,2013-08-05T22:00:00Z,26.5255,-82.0032,2.11,4.85,1111122 
SCCF RECON,ioos:station:SCCF:13:1,2013-08-05T23:00:00Z,26.5255,-82.0032,2.03,4.99,1111122 
SCCF RECON,ioos:station:SCCF:13:1,2013-08-06T00:00:00Z,26.5255,-82.0032,1.977,5.15,1111122 
SCCF RECON,ioos:station:SCCF:13:1,2013-08-06T01:00:00Z,26.5255,-82.0032,1.97,5.16,1111122 
SCCF RECON,ioos:station:SCCF:13:1,2013-08-06T02:00:00Z,26.5255,-82.0032,2.058,5.13,1111122 
SCCF RECON,ioos:station:SCCF:13:1,2013-08-06T03:00:00Z,26.5255,-82.0032,2.2,5.16,1111122 
SCCF RECON,ioos:station:SCCF:13:1,2013-08-06T04:00:00Z,26.5255,-82.0032,2.28,5.0,1111122 
SCCF RECON,ioos:station:SCCF:13:1,2013-08-06T05:00:00Z,26.5255,-82.0032,2.33,4.91,1111122 
SCCF RECON,ioos:station:SCCF:13:1,2013-08-06T06:00:00Z,26.5255,-82.0032,2.38,4.26,1111122 
SCCF RECON,ioos:station:SCCF:13:1,2013-08-06T07:00:00Z,26.5255,-82.0032,2.38,4.17,1111122 
SCCF RECON,ioos:station:SCCF:13:1,2013-08-06T08:00:00Z,26.5255,-82.0032,2.32,4.23,1111122 
SCCF RECON,ioos:station:SCCF:13:1,2013-08-06T09:00:00Z,26.5255,-82.0032,2.26,4.1,1111122 
SCCF RECON,ioos:station:SCCF:13:1,2013-08-06T10:00:00Z,26.5255,-82.0032,2.189,4.37,1111122 
SCCF RECON,ioos:station:SCCF:13:1,2013-08-06T11:00:00Z,26.5255,-82.0032,2.14,4.62,1111122 
SCCF RECON,ioos:station:SCCF:13:1,2013-08-06T12:00:00Z,26.5255,-82.0032,2.13,4.84,1111122 
SCCF RECON,ioos:station:SCCF:13:1,2013-08-06T13:00:00Z,26.5255,-82.0032,2.204,4.86,1111122 
SCCF RECON,ioos:station:SCCF:13:1,2013-08-06T14:00:00Z,26.5255,-82.0032,2.31,4.66,1111122 
SCCF RECON,ioos:station:SCCF:13:1,2013-08-06T15:00:00Z,26.5255,-82.0032,2.431,3.42,1111122 
SCCF RECON,ioos:station:SCCF:13:1,2013-08-06T16:00:00Z,26.5255,-82.0032,2.51,4.53,1111122 
SCCF RECON,ioos:station:SCCF:13:1,2013-08-06T17:00:00Z,26.5255,-82.0032,2.55,4.63,1111122 
SCCF RECON,ioos:station:SCCF:13:1,2013-08-06T18:00:00Z,26.5255,-82.0032,2.56,4.67,1111122 
SCCF RECON,ioos:station:SCCF:13:1,2013-08-06T19:00:00Z,26.5255,-82.0032,2.53,4.25,1111122 
SCCF RECON,ioos:station:SCCF:13:1,2013-08-06T20:00:00Z,26.5255,-82.0032,2.43,3.99,1111122 
SCCF RECON,ioos:station:SCCF:13:1,2013-08-06T21:00:00Z,26.5255,-82.0032,2.29,3.94,1111122 
SCCF RECON,ioos:station:SCCF:13:1,2013-08-06T22:00:00Z,26.5255,-82.0032,2.18,4.8,1111122 
SCCF RECON,ioos:station:SCCF:13:1,2013-08-06T23:00:00Z,26.5255,-82.0032,2.09,4.81,1111122 
SCCF RECON,ioos:station:SCCF:13:1,2013-08-07T00:00:00Z,26.5255,-82.0032,2.01,4.72,1111122 
SCCF RECON,ioos:station:SCCF:13:1,2013-08-07T01:00:00Z,26.5255,-82.0032,1.96,4.85,1111122 
SCCF RECON,ioos:station:SCCF:13:1,2013-08-07T02:00:00Z,26.5255,-82.0032,2.01,5.02,1111122 
SCCF RECON,ioos:station:SCCF:13:1,2013-08-07T03:00:00Z,26.5255,-82.0032,2.15,5.03,1111122 
SCCF RECON,ioos:station:SCCF:13:1,2013-08-07T04:00:00Z,26.5255,-82.0032,2.28,4.89,1111122 
SCCF RECON,ioos:station:SCCF:13:1,2013-08-07T05:00:00Z,26.5255,-82.0032,2.35,4.52,1111122 
SCCF RECON,ioos:station:SCCF:13:1,2013-08-07T06:00:00Z,26.5255,-82.0032,2.41,4.02,1111122 
SCCF RECON,ioos:station:SCCF:13:1,2013-08-07T07:00:00Z,26.5255,-82.0032,2.42,4.22,1111122 
SCCF RECON,ioos:station:SCCF:13:1,2013-08-07T08:00:00Z,26.5255,-82.0032,2.37,4.19,1111122 
SCCF RECON,ioos:station:SCCF:13:1,2013-08-07T09:00:00Z,26.5255,-82.0032,2.29,4.09,1111122 
SCCF RECON,ioos:station:SCCF:13:1,2013-08-07T10:00:00Z,26.5255,-82.0032,2.2,3.76,1111122 
SCCF RECON,ioos:station:SCCF:13:1,2013-08-07T11:00:00Z,26.5255,-82.0032,2.15,4.43,1111122 
SCCF RECON,ioos:station:SCCF:13:1,2013-08-07T12:00:00Z,26.5255,-82.0032,2.12,4.45,1111122 
SCCF RECON,ioos:station:SCCF:13:1,2013-08-07T13:00:00Z,26.5255,-82.0032,2.131,4.69,1111122 
SCCF RECON,ioos:station:SCCF:13:1,2013-08-07T14:00:00Z,26.5255,-82.0032,2.22,4.71,1111122 
SCCF RECON,ioos:station:SCCF:13:1,2013-08-07T15:00:00Z,26.5255,-82.0032,2.36,3.75,1111122 
SCCF RECON,ioos:station:SCCF:13:1,2013-08-07T16:00:00Z,26.5255,-82.0032,2.46,3.4,1111122 
SCCF RECON,ioos:station:SCCF:13:1,2013-08-07T17:00:00Z,26.5255,-82.0032,2.521,4.33,1111122 
SCCF RECON,ioos:station:SCCF:13:1,2013-08-07T18:00:00Z,26.5255,-82.0032,2.57,5.01,1111122 
SCCF RECON,ioos:station:SCCF:13:1,2013-08-07T19:00:00Z,26.5255,-82.0032,2.577,5.47,1111122 
SCCF RECON,ioos:station:SCCF:13:1,2013-08-07T20:00:00Z,26.5255,-82.0032,2.5,4.94,1111122 
SCCF RECON,ioos:station:SCCF:13:1,2013-08-07T21:00:00Z,26.5255,-82.0032,2.38,5.43,1111122 
SCCF RECON,ioos:station:SCCF:13:1,2013-08-07T22:00:00Z,26.5255,-82.0032,2.23,4.85,1111122 
SCCF RECON,ioos:station:SCCF:13:1,2013-08-07T23:00:00Z,26.5255,-82.0032,2.16,5.02,1111122 
SCCF RECON,ioos:station:SCCF:13:1,2013-08-08T00:00:00Z,26.5255,-82.0032,2.076,4.83,1111122 
SCCF RECON,ioos:station:SCCF:13:1,2013-08-08T01:00:00Z,26.5255,-82.0032,2.0,4.94,1111122 
SCCF RECON,ioos:station:SCCF:13:1,2013-08-08T02:00:00Z,26.5255,-82.0032,2.01,4.85,1111122 
SCCF RECON,ioos:station:SCCF:13:1,2013-08-08T03:00:00Z,26.5255,-82.0032,2.148,4.78,1111122 
SCCF RECON,ioos:station:SCCF:13:1,2013-08-08T04:00:00Z,26.5255,-82.0032,2.29,4.8,1111122 
SCCF RECON,ioos:station:SCCF:13:1,2013-08-08T05:00:00Z,26.5255,-82.0032,2.36,4.53,1111122 
SCCF RECON,ioos:station:SCCF:13:1,2013-08-08T06:00:00Z,26.5255,-82.0032,2.42,4.2,1111122 
SCCF RECON,ioos:station:SCCF:13:1,2013-08-08T07:00:00Z,26.5255,-82.0032,2.45,4.5,1111122 
SCCF RECON,ioos:station:SCCF:13:1,2013-08-08T08:00:00Z,26.5255,-82.0032,2.46,4.66,1111122 
SCCF RECON,ioos:station:SCCF:13:1,2013-08-08T09:00:00Z,26.5255,-82.0032,2.4,4.69,1111122 
SCCF RECON,ioos:station:SCCF:13:1,2013-08-08T10:00:00Z,26.5255,-82.0032,2.3,4.44,1111122 
SCCF RECON,ioos:station:SCCF:13:1,2013-08-08T11:00:00Z,26.5255,-82.0032,2.21,4.33,1111122 
SCCF RECON,ioos:station:SCCF:13:1,2013-08-08T12:00:00Z,26.5255,-82.0032,2.15,4.54,1111122 
SCCF RECON,ioos:station:SCCF:13:1,2013-08-08T13:00:00Z,26.5255,-82.0032,2.13,4.65,1111122 
SCCF RECON,ioos:station:SCCF:13:1,2013-08-08T14:00:00Z,26.5255,-82.0032,2.21,4.69,1111122 
SCCF RECON,ioos:station:SCCF:13:1,2013-08-08T15:00:00Z,26.5255,-82.0032,2.362,4.77,1111122 
SCCF RECON,ioos:station:SCCF:13:1,2013-08-08T16:00:00Z,26.5255,-82.0032,2.48,3.98,1111122 
SCCF RECON,ioos:station:SCCF:13:1,2013-08-08T17:00:00Z,26.5255,-82.0032,2.55,4.46,1111122 
SCCF RECON,ioos:station:SCCF:13:1,2013-08-08T18:00:00Z,26.5255,-82.0032,2.6,5.69,1111122 
SCCF RECON,ioos:station:SCCF:13:1,2013-08-08T19:00:00Z,26.5255,-82.0032,2.64,6.59,1111122 
SCCF RECON,ioos:station:SCCF:13:1,2013-08-08T20:00:00Z,26.5255,-82.0032,2.65,6.79,1111122 
SCCF RECON,ioos:station:SCCF:13:1,2013-08-08T21:00:00Z,26.5255,-82.0032,2.562,6.27,1111122 
SCCF RECON,ioos:station:SCCF:13:1,2013-08-08T22:00:00Z,26.5255,-82.0032,2.45,6.48,1111122 
SCCF RECON,ioos:station:SCCF:13:1,2013-08-08T23:00:00Z,26.5255,-82.0032,2.3,5.42,1111122 
SCCF RECON,ioos:station:SCCF:13:1,2013-08-09T00:00:00Z,26.5255,-82.0032,2.217,5.43,1111122 
SCCF RECON,ioos:station:SCCF:13:1,2013-08-09T01:00:00Z,26.5255,-82.0032,2.142,5.03,1111122 
SCCF RECON,ioos:station:SCCF:13:1,2013-08-09T02:00:00Z,26.5255,-82.0032,2.1,5.05,1111122 
SCCF RECON,ioos:station:SCCF:13:1,2013-08-09T03:00:00Z,26.5255,-82.0032,2.112,4.87,1111122 
SCCF RECON,ioos:station:SCCF:13:1,2013-08-09T04:00:00Z,26.5255,-82.0032,2.28,4.82,1111122 
SCCF RECON,ioos:station:SCCF:13:1,2013-08-09T05:00:00Z,26.5255,-82.0032,2.37,4.77,1111122 
SCCF RECON,ioos:station:SCCF:13:1,2013-08-09T06:00:00Z,26.5255,-82.0032,2.43,4.54,1111122 
SCCF RECON,ioos:station:SCCF:13:1,2013-08-09T07:00:00Z,26.5255,-82.0032,2.48,4.54,1111122 
SCCF RECON,ioos:station:SCCF:13:1,2013-08-09T08:00:00Z,26.5255,-82.0032,2.49,4.73,1111122 
SCCF RECON,ioos:station:SCCF:13:1,2013-08-09T09:00:00Z,26.5255,-82.0032,2.45,4.53,1111122 
SCCF RECON,ioos:station:SCCF:13:1,2013-08-09T10:00:00Z,26.5255,-82.0032,2.36,4.72,1111122 
SCCF RECON,ioos:station:SCCF:13:1,2013-08-09T11:00:00Z,26.5255,-82.0032,2.27,4.46,1111122 
SCCF RECON,ioos:station:SCCF:13:1,2013-08-09T12:00:00Z,26.5255,-82.0032,2.205,4.54,1111122 
SCCF RECON,ioos:station:SCCF:13:1,2013-08-09T13:00:00Z,26.5255,-82.0032,2.13,4.68,1111122 
SCCF RECON,ioos:station:SCCF:13:1,2013-08-09T14:00:00Z,26.5255,-82.0032,2.162,4.78,1111122 
SCCF RECON,ioos:station:SCCF:13:1,2013-08-09T15:00:00Z,26.5255,-82.0032,2.27,4.84,1111122 
SCCF RECON,ioos:station:SCCF:13:1,2013-08-09T16:00:00Z,26.5255,-82.0032,2.43,4.74,1111122 
SCCF RECON,ioos:station:SCCF:13:1,2013-08-09T17:00:00Z,26.5255,-82.0032,2.512,4.07,1111122 
SCCF RECON,ioos:station:SCCF:13:1,2013-08-09T18:00:00Z,26.5255,-82.0032,2.571,4.92,1111122 
SCCF RECON,ioos:station:SCCF:13:1,2013-08-09T19:00:00Z,26.5255,-82.0032,2.7,5.79,1111122 
SCCF RECON,ioos:station:SCCF:13:1,2013-08-09T20:00:00Z,26.5255,-82.0032,2.61,6.1,1111122 
SCCF RECON,ioos:station:SCCF:13:1,2013-08-09T21:00:00Z,26.5255,-82.0032,2.59,6.0,1111122 
SCCF RECON,ioos:station:SCCF:13:1,2013-08-09T22:00:00Z,26.5255,-82.0032,2.43,5.22,1111122 
SCCF RECON,ioos:station:SCCF:13:1,2013-08-09T23:00:00Z,26.5255,-82.0032,2.314,5.17,1111122 
SCCF RECON,ioos:station:SCCF:13:1,2013-08-10T00:00:00Z,26.5255,-82.0032,2.24,5.22,1111122 
SCCF RECON,ioos:station:SCCF:13:1,2013-08-10T01:00:00Z,26.5255,-82.0032,2.167,5.12,1111122 
SCCF RECON,ioos:station:SCCF:13:1,2013-08-10T02:00:00Z,26.5255,-82.0032,2.1,5.11,1111122 
SCCF RECON,ioos:station:SCCF:13:1,2013-08-10T03:00:00Z,26.5255,-82.0032,2.1,5.07,1111122 
SCCF RECON,ioos:station:SCCF:13:1,2013-08-10T04:00:00Z,26.5255,-82.0032,2.26,4.98,1111122 
SCCF RECON,ioos:station:SCCF:13:1,2013-08-10T05:00:00Z,26.5255,-82.0032,2.33,4.97,1111122 
SCCF RECON,ioos:station:SCCF:13:1,2013-08-10T06:00:00Z,26.5255,-82.0032,2.456,4.99,1111122 
SCCF RECON,ioos:station:SCCF:13:1,2013-08-10T07:00:00Z,26.5255,-82.0032,2.52,4.48,1111122 
SCCF RECON,ioos:station:SCCF:13:1,2013-08-10T08:00:00Z,26.5255,-82.0032,2.56,4.85,1111122 
SCCF RECON,ioos:station:SCCF:13:1,2013-08-10T09:00:00Z,26.5255,-82.0032,2.55,4.72,1111122 
SCCF RECON,ioos:station:SCCF:13:1,2013-08-10T10:00:00Z,26.5255,-82.0032,2.47,4.82,1111122 
SCCF RECON,ioos:station:SCCF:13:1,2013-08-10T11:00:00Z,26.5255,-82.0032,2.33,4.51,1111122 
SCCF RECON,ioos:station:SCCF:13:1,2013-08-10T12:00:00Z,26.5255,-82.0032,2.24,4.8,1111122 
SCCF RECON,ioos:station:SCCF:13:1,2013-08-10T13:00:00Z,26.5255,-82.0032,2.189,4.84,1111122 
SCCF RECON,ioos:station:SCCF:13:1,2013-08-10T14:00:00Z,26.5255,-82.0032,2.148,5.05,1111122 
SCCF RECON,ioos:station:SCCF:13:1,2013-08-10T15:00:00Z,26.5255,-82.0032,2.19,5.17,1111122 
SCCF RECON,ioos:station:SCCF:13:1,2013-08-10T16:00:00Z,26.5255,-82.0032,2.301,5.26,1111122 
SCCF RECON,ioos:station:SCCF:13:1,2013-08-10T17:00:00Z,26.5255,-82.0032,2.401,5.15,1111122 
SCCF RECON,ioos:station:SCCF:13:1,2013-08-10T18:00:00Z,26.5255,-82.0032,2.43,4.54,1111122 
SCCF RECON,ioos:station:SCCF:13:1,2013-08-10T19:00:00Z,26.5255,-82.0032,2.487,4.07,1111122 
SCCF RECON,ioos:station:SCCF:13:1,2013-08-10T20:00:00Z,26.5255,-82.0032,2.56,5.12,1111122 
SCCF RECON,ioos:station:SCCF:13:1,2013-08-10T21:00:00Z,26.5255,-82.0032,2.581,5.75,1111122 
SCCF RECON,ioos:station:SCCF:13:1,2013-08-10T22:00:00Z,26.5255,-82.0032,2.514,5.79,1111122 
SCCF RECON,ioos:station:SCCF:13:1,2013-08-10T23:00:00Z,26.5255,-82.0032,2.398,5.96,1111122 
SCCF RECON,ioos:station:SCCF:13:1,2013-08-11T00:00:00Z,26.5255,-82.0032,2.281,5.2,1111122 
SCCF RECON,ioos:station:SCCF:13:1,2013-08-11T01:00:00Z,26.5255,-82.0032,2.21,5.04,1111122 
SCCF RECON,ioos:station:SCCF:13:1,2013-08-11T02:00:00Z,26.5255,-82.0032,2.139,5.23,1111122 
SCCF RECON,ioos:station:SCCF:13:1,2013-08-11T03:00:00Z,26.5255,-82.0032,2.099,5.46,1111122 
SCCF RECON,ioos:station:SCCF:13:1,2013-08-11T04:00:00Z,26.5255,-82.0032,2.15,5.29,1111122 
SCCF RECON,ioos:station:SCCF:13:1,2013-08-11T05:00:00Z,26.5255,-82.0032,2.31,5.26,1111122 
SCCF RECON,ioos:station:SCCF:13:1,2013-08-11T06:00:00Z,26.5255,-82.0032,2.43,5.08,1111122 
SCCF RECON,ioos:station:SCCF:13:1,2013-08-11T07:00:00Z,26.5255,-82.0032,2.47,4.43,1111122 
SCCF RECON,ioos:station:SCCF:13:1,2013-08-11T08:00:00Z,26.5255,-82.0032,2.5,4.9,1111122 
SCCF RECON,ioos:station:SCCF:13:1,2013-08-11T09:00:00Z,26.5255,-82.0032,2.5,4.95,1111122 
SCCF RECON,ioos:station:SCCF:13:1,2013-08-11T10:00:00Z,26.5255,-82.0032,2.45,5.04,1111122 
SCCF RECON,ioos:station:SCCF:13:1,2013-08-11T11:00:00Z,26.5255,-82.0032,2.36,5.02,1111122 
SCCF RECON,ioos:station:SCCF:13:1,2013-08-11T12:00:00Z,26.5255,-82.0032,2.27,4.92,1111122 
SCCF RECON,ioos:station:SCCF:13:1,2013-08-11T13:00:00Z,26.5255,-82.0032,2.198,5.06,1111122 
SCCF RECON,ioos:station:SCCF:13:1,2013-08-11T14:00:00Z,26.5255,-82.0032,2.12,5.31,1111122 
SCCF RECON,ioos:station:SCCF:13:1,2013-08-11T15:00:00Z,26.5255,-82.0032,2.09,5.55,1111122 
SCCF RECON,ioos:station:SCCF:13:1,2013-08-11T16:00:00Z,26.5255,-82.0032,2.113,5.49,1111122 
SCCF RECON,ioos:station:SCCF:13:1,2013-08-11T17:00:00Z,26.5255,-82.0032,2.22,5.42,1111122 
SCCF RECON,ioos:station:SCCF:13:1,2013-08-11T18:00:00Z,26.5255,-82.0032,2.33,5.44,1111122 
SCCF RECON,ioos:station:SCCF:13:1,2013-08-11T19:00:00Z,26.5255,-82.0032,2.39,5.39,1111122 
SCCF RECON,ioos:station:SCCF:13:1,2013-08-11T20:00:00Z,26.5255,-82.0032,2.43,4.34,1111122 
SCCF RECON,ioos:station:SCCF:13:1,2013-08-11T21:00:00Z,26.5255,-82.0032,2.47,5.31,1111122 